Regional Weather Roundup
Issued by NWS

Home | Current Version | Previous Version | Graphics & Text | Print | Product List | Glossary On
Versions: 1 2 3 4 5 6 7 8 9 10 11 12 13 14 15 16 17 18 19 20 21 22 23 24 25 26 27 28 29 30 31 32 33 34 35 36 37 38 39 40 41 42 43 44 45 46 47 48 49 50
000
ASUS44 KMEG 291500
RWRTN
TENNESSEE HOURLY STATE WEATHER ROUNDUP
NATIONAL WEATHER SERVICE MEMPHIS TN
1000 AM CDT THU SEP 29 2016

TNZ002-004-019-021-049-052-054-088>092-291600-
WEST TENNESSEE

CITY           SKY/WX    TMP DP  RH WIND       PRES   REMARKS
MEMPHIS INTL   SUNNY     65  51  60 NW9       30.17R
NWS MEMPHIS      N/A     62 N/A N/A MISG        N/A
JACKSON        MOSUNNY  N/A N/A N/A NW7       30.14S
DYERSBURG      SUNNY    N/A N/A N/A MISG        N/A
UNION CITY     PTSUNNY   59  52  77 N12       30.13R
PARIS          PTSUNNY   55  50  82 VRB7      30.13R
LEXINGTON      MOSUNNY   61  50  67 N6        30.12S
$$

TNZ008-025-027-028-033-062-065-066-291600-
NORTH MIDDLE TENNESSEE

CITY           SKY/WX    TMP DP  RH WIND       PRES   REMARKS
NASHVILLE      PTSUNNY   59  49  69 NW7       30.10R
CLARKSVILLE    CLOUDY    56  50  80 NW7       30.10R
SMYRNA         PTSUNNY   60  51  72 NW7       30.11R
COOKEVILLE     CLOUDY    55  52  88 NW3       30.08R
CROSSVILLE     PTSUNNY   59  47  64 N8        30.06R
$$

TNZ061-075-076-078-094-096-097-291600-
SOUTH MIDDLE TENNESSEE

CITY           SKY/WX    TMP DP  RH WIND       PRES   REMARKS
SHELBYVILLE    MOSUNNY   61  52  72 NW6       30.10R
$$

TNZ017-018-042-046-047-291600-
NORTHEAST TENNESSEE

CITY           SKY/WX    TMP DP  RH WIND       PRES   REMARKS
TRI CITIES     PTSUNNY   63  54  72 VRB3      30.00R
$$

TNZ012-013-036-069-073-074-291600-
CENTRAL EAST TENNESSEE

CITY           SKY/WX    TMP DP  RH WIND       PRES   REMARKS
KNOXVILLE      CLOUDY    62  54  74 CALM      30.02R
OAK RIDGE      CLOUDY    63  51  65 CALM      30.05R
GATLINBURG     CLOUDY    59  54  82 W6        30.03R
$$

TNZ083-085-099-291600-
SOUTHEAST TENNESSEE

CITY           SKY/WX    TMP DP  RH WIND       PRES   REMARKS
CHATTANOOGA    MOSUNNY   65  48  54 N6        30.05R
$$

SKY/WX REPORTED AS FAIR MEANS FEW OR NO CLOUDS BELOW
12 THOUSAND FEET.





USA.gov is the U.S. government's official web portal to all federal, state and local government web resources and services.